TimeHST,TemperatureF,Dew PointF,Humidity,Sea Level PressureIn,VisibilityMPH,Wind Direction,Wind SpeedMPH,Gust SpeedMPH,PrecipitationIn,Events,Conditions,WindDirDegrees,DateUTC
12:56 AM,64.9,59.0,81,30.14,10.0,Calm,Calm,-,N/A,,Clear,0,2013-02-13 10:56:00
1:56 AM,64.9,55.9,73,30.13,10.0,NE,4.6,-,N/A,,Clear,40,2013-02-13 11:56:00
2:56 AM,63.0,55.9,78,30.12,10.0,ENE,5.8,-,N/A,,Clear,60,2013-02-13 12:56:00
3:56 AM,66.0,57.9,75,30.12,10.0,East,6.9,-,N/A,,Mostly Cloudy,80,2013-02-13 13:56:00
4:56 AM,66.9,60.1,79,30.11,10.0,East,3.5,-,N/A,,Overcast,80,2013-02-13 14:56:00
5:56 AM,66.9,55.0,66,30.11,10.0,ENE,4.6,-,N/A,,Mostly Cloudy,70,2013-02-13 15:56:00
6:56 AM,64.9,55.9,73,30.13,10.0,East,4.6,-,N/A,,Clear,90,2013-02-13 16:56:00
7:56 AM,66.9,57.9,73,30.14,10.0,Calm,Calm,-,N/A,,Partly Cloudy,0,2013-02-13 17:56:00
8:56 AM,75.0,54.0,48,30.15,10.0,North,3.5,-,N/A,,Clear,360,2013-02-13 18:56:00
9:56 AM,75.0,54.0,48,30.15,10.0,North,3.5,-,N/A,,Mostly Cloudy,350,2013-02-13 19:56:00
10:56 AM,73.9,55.9,53,30.14,10.0,WSW,4.6,-,N/A,,Mostly Cloudy,240,2013-02-13 20:56:00
11:56 AM,78.1,55.9,46,30.12,10.0,NNW,8.1,-,N/A,,Partly Cloudy,330,2013-02-13 21:56:00
12:56 PM,77.0,55.9,48,30.09,10.0,WSW,6.9,-,N/A,,Partly Cloudy,250,2013-02-13 22:56:00
1:56 PM,77.0,59.0,54,30.07,10.0,SW,11.5,-,N/A,,Scattered Clouds,220,2013-02-13 23:56:00
2:56 PM,77.0,59.0,54,30.04,10.0,WSW,10.4,-,N/A,,Mostly Cloudy,240,2013-02-14 00:56:00
3:56 PM,75.9,59.0,56,30.04,10.0,West,10.4,-,N/A,,Mostly Cloudy,260,2013-02-14 01:56:00
4:56 PM,75.9,59.0,56,30.05,10.0,West,8.1,-,N/A,,Partly Cloudy,270,2013-02-14 02:56:00
5:56 PM,75.9,59.0,56,30.06,10.0,Calm,Calm,-,N/A,,Partly Cloudy,0,2013-02-14 03:56:00
6:56 PM,73.0,60.1,64,30.07,10.0,NNE,5.8,-,N/A,,Overcast,30,2013-02-14 04:56:00
7:56 PM,71.1,62.1,73,30.10,10.0,NNE,6.9,-,N/A,,Partly Cloudy,20,2013-02-14 05:56:00
8:56 PM,72.0,64.0,76,30.12,10.0,North,12.7,-,N/A,,Clear,10,2013-02-14 06:56:00
9:56 PM,70.0,63.0,78,30.12,10.0,NE,3.5,-,N/A,,Partly Cloudy,50,2013-02-14 07:56:00
10:56 PM,68.0,60.1,76,30.11,10.0,SSE,3.5,-,N/A,,Overcast,150,2013-02-14 08:56:00
11:56 PM,66.0,62.1,87,30.11,10.0,ENE,3.5,-,N/A,,Clear,70,2013-02-14 09:56:00